WICT2: Wichita River At Wichita Falls, TX

                                SHEF ID:       WICT2     Wichita Rv at Wichita Falls, TX
STATION TYPE:
Regulating: Stage = 18.50, Flow = 5482

PRECIP STAGE RIV-FLOW WTR-TEMP CONDUCT BAT-LOAD
in ft cfs F umho/cm volt
Ccp-Rev Ccp-Rev Ccp-Rev Ccp-Rev Ccp-Rev Ccp-Rev
(America/Chicago)
03/24 00:00 ---- 2.07 17 67.55 7064 12.11
03/24 01:00 ---- 2.07 17 67.10 7024 12.09
03/24 02:00 ---- 2.07 17 66.65 7003 12.01
03/24 03:00 ---- 2.07 17 66.24 6973 12.03
03/24 04:00 ---- 2.06 16 65.82 7005 12.01
03/24 05:00 ---- 2.07 17 65.52 7030 11.98
03/24 06:00 ---- 2.07 17 65.23 7045 11.96
03/24 07:00 ---- 2.07 17 64.85 7056 11.94
03/24 08:00 ---- 2.07 17 64.45 7027 11.93
03/24 09:00 ---- 2.05 16 64.08 7014 11.98
03/24 10:00 ---- 2.05 16 64.08 7009 12.45
03/24 11:00 ---- 2.05 16 64.62 7017 13.12
03/24 12:00 ---- 2.03 15 65.64 7034 12.83
03/24 13:00 ---- 2.03 15 66.96 7038 12.61
03/24 14:00 ---- 2.04 15 68.52 7063 12.56
03/24 15:00 ---- 2.04 15 69.98 7077 12.50
03/24 16:00 ---- 2.04 15 71.26 7084 12.44
03/24 17:00 ---- 2.05 16 72.48 7087 12.34
03/24 18:00 ---- 2.06 16 73.18 7084 12.27
03/24 19:00 ---- 2.06 16 73.26 7058 12.19
03/24 20:00 ---- 2.07 17 73.02 7077 12.14
03/24 21:00 ---- 2.07 17 72.50 7067 12.14
03/24 22:00 ---- 2.07 17 71.78 7042 12.13
03/24 23:00 ---- 2.07 17 71.04 6995 12.11
Data processed at Wed 25Mar2026 04:58 GMT

NOTICE: If you are parsing this page

Please convert to using our Data API. Starting early 2026 we will be migrating to: https://water.usace.army.mil with modern pages rendered in JavaScript. When this migration completes you will no longer be able to scrape this page! CWMSDataAPI (CDA)

Timeseries IDs (TSIDs)

TSIDs used from left to right in the data table
WFAL.Precip-Inc.Total.1Hour.1Hour.Ccp-Rev
WFAL.Stage.Inst.1Hour.0.Ccp-Rev
WFAL.Flow.Inst.1Hour.0.Ccp-Rev
WFAL.Temp-Water.Inst.1Hour.0.Ccp-Rev
WFAL.Cond-Water.Inst.1Hour.0.Ccp-Rev
WFAL.Volt-Battery Load.Inst.1Hour.0.Ccp-Rev

                            

All information presented herein is the property of the government of the United States of America and may be revised or deleted at any time without prior notice. Dissemination of this information without the expressed written consent of the Public Affairs Office, Tulsa District U.S. Army Corps of Engineers is strictly prohibited. These data are gathered electronically and, as presented, have NOT undergone any form of quality control. These data are NOT guaranteed to be valid or correct.